Regional Weather Roundup
Issued by NWS Goodland, KS

Home | Current Version | Previous Version | Graphics & Text | Print | Product List | Glossary On
Versions: 1 2 3 4 5 6 7 8 9 10 11 12 13 14 15 16 17 18 19 20 21 22 23 24 25 26 27 28 29 30 31 32 33 34 35 36 37 38 39 40 41 42 43 44 45 46 47 48 49 50
000
ASUS43 KGLD 201308
RWRGLD

GOODLAND FORECAST AREA HOURLY WEATHER ROUNDUP
NATIONAL WEATHER SERVICE GOODLAND KS
700 AM MDT WED SEP 20 2017

...OFFICIAL OBSERVATIONS...

CITY           SKY/WX    TMP DP  RH WIND       PRES   REMARKS
GOODLAND KS    CLOUDY    42  35  76 NW6       29.96R
HILL CITY KS   CLEAR     53  38  56 NW7       29.91R
IMPERIAL NEB   CLOUDY    42  35  76 W7        29.96R
MCCOOK NEB     CLEAR     43  37  79 W8        29.92R
AKRON CO       CLOUDY    43  27  53 CALM      29.99R
BURLINGTON CO  CLOUDY    38  30  73 CALM      29.99R
LIMON CO       CLOUDY    36  30  79 CALM      30.04R
$$

...UNOFFICIAL OBSERVATIONS...

CITY           SKY/WX    TMP DP  RH WIND       PRES   REMARKS
LENORA KS        N/A     49  32  52 MISG        N/A
NORTON KS      CLEAR     48  34  57 W10       29.90R
SHARON SPRINGS   N/A     47  35  63 N5G12       N/A
TRIBUNE KS     CLOUDY    48  34  57 N13       29.99R
TRENTON NEB      N/A     47  32  56 NW6         N/A
KIT CARSON CO    N/A     46  30  53 CALM        N/A
YUMA CO        FAIR      36  30  80 CALM      29.99R
$$




USA.gov is the U.S. government's official web portal to all federal, state and local government web resources and services.